Salina, KS

11:21 PM CST on December 03, 2016 (GMT -0600)
Salina Municipal

Weather History for KSLN - July, 2012

Change the Weather History Date:

Thursday, July 26, 2012

  Actual Average Record
Temperature  
Mean Temperature 84 °F 81 °F  
Max Temperature 96 °F 93 °F 111 °F (1910)
Min Temperature 72 °F 70 °F 56 °F (1926)
Degree Days  
Heating Degree Days 0 0  
Month to date heating degree days 0 0  
Since 1 June heating degree days 10 7  
Since 1 July heating degree days 0 0  
Cooling Degree Days 19 16  
Month to date cooling degree days 581 415  
Year to date cooling degree days 1381 868  
Since 1 June cooling degree days 1059 740  
Growing Degree Days 34 (Base 50)    
Moisture  
Dew Point 67 °F    
Average Humidity 59    
Maximum Humidity 87    
Minimum Humidity 31    
Precipitation  
Precipitation T in 0.13 in 2.21 in (1990)
Month to date precipitation 1.67 3.67  
Year to date precipitation 11.26 19.77  
Sea Level Pressure  
Sea Level Pressure 29.83 in    
Wind  
Wind Speed 5 mph (South)    
Max Wind Speed 20 mph    
Max Gust Speed 23 mph    
Visibility 10 miles    
Events Rain    
T = Trace of Precipitation, MM = Missing Value Source: NWS Daily Summary

Daily Weather History Graph

Daily Weather History Graph

Search for Another Location

Airport or City:

Trip Planner

Search our weather history database for the weather conditions in past years. The results will help you decide how hot, cold, wet, or windy it might be!

Date:

Astronomy

Jul. 26, 2012 Rise Set
Actual Time 6:27 AM CDT 8:46 PM CDT
Civil Twilight 5:56 AM CDT 9:16 PM CDT
Nautical Twilight 5:19 AM CDT 9:53 PM CDT
Astronomical Twilight 4:38 AM CDT 10:34 PM CDT
Moon 2:36 PM CDT (7/26) 12:19 AM CDT (7/26)
Length of Visible Light 15h 19m
Length of Day
14h 19m
First Quarter, 54% of the Moon is Illuminated
Jul 26
First Quarter
Aug 1
Full
Aug 9
Last Quarter
Aug 17
New
Aug 24
First Quarter

Hourly Weather History & Observations

Time (CDT) Temp. Heat Index Dew Point Humidity Pressure Visibility Wind Dir Wind Speed Gust Speed Precip Events Conditions
12:53 AM 73.9 °F - 66.9 °F 79% 29.73 in 10.0 mi SE 4.6 mph - N/A   Clear
1:53 AM 75.0 °F - 69.1 °F 82% 29.78 in 10.0 mi WSW 6.9 mph - N/A   Mostly Cloudy
2:53 AM 75.0 °F - 68.0 °F 79% 29.83 in 10.0 mi NW 10.4 mph - N/A   Scattered Clouds
3:53 AM 73.9 °F - 69.1 °F 85% 29.80 in 10.0 mi SSE 4.6 mph - 0.00 in Rain Light Rain
4:53 AM 73.9 °F - 68.0 °F 82% 29.74 in 10.0 mi SW 9.2 mph - 0.00 in   Clear
5:53 AM 73.0 °F - 69.1 °F 87% 29.76 in 10.0 mi South 5.8 mph - N/A   Clear
6:53 AM 73.0 °F - 68.0 °F 84% 29.80 in 10.0 mi NNW 6.9 mph - N/A   Mostly Cloudy
7:53 AM 73.0 °F - 68.0 °F 84% 29.84 in 10.0 mi North 9.2 mph - N/A   Partly Cloudy
8:53 AM 78.1 °F - 68.0 °F 71% 29.86 in 10.0 mi NNE 6.9 mph - N/A   Scattered Clouds
9:53 AM 79.0 °F - 69.1 °F 72% 29.87 in 10.0 mi ESE 6.9 mph - N/A   Clear
10:53 AM 84.0 °F 87.0 °F 68.0 °F 58% 29.86 in 10.0 mi ESE 5.8 mph - N/A   Clear
11:53 AM 86.0 °F 88.8 °F 66.9 °F 53% 29.88 in 10.0 mi Calm Calm - N/A   Scattered Clouds
12:53 PM 87.1 °F 90.6 °F 68.0 °F 53% 29.87 in 10.0 mi SSW 5.8 mph - N/A   Mostly Cloudy
1:53 PM 91.0 °F 94.3 °F 66.9 °F 45% 29.86 in 10.0 mi SSW 4.6 mph - N/A   Scattered Clouds
2:53 PM 93.9 °F 95.6 °F 64.0 °F 37% 29.86 in 10.0 mi Variable 3.5 mph - N/A   Clear
3:53 PM 93.9 °F 95.2 °F 63.0 °F 36% 29.85 in 10.0 mi Variable 4.6 mph - N/A   Partly Cloudy
4:53 PM 95.0 °F 97.0 °F 64.0 °F 36% 29.84 in 10.0 mi SSE 4.6 mph - N/A   Partly Cloudy
5:53 PM 95.0 °F 95.2 °F 61.0 °F 32% 29.83 in 10.0 mi Calm Calm - N/A   Partly Cloudy
6:53 PM 96.1 °F 96.9 °F 62.1 °F 32% 29.82 in 10.0 mi Calm Calm - N/A   Clear
7:53 PM 93.9 °F 94.0 °F 61.0 °F 33% 29.82 in 10.0 mi NNE 4.6 mph - N/A   Clear
8:53 PM 89.1 °F 90.3 °F 64.0 °F 43% 29.83 in 10.0 mi WSW 3.5 mph - N/A   Clear
9:53 PM 86.0 °F 88.2 °F 66.0 °F 51% 29.85 in 10.0 mi SW 3.5 mph - N/A   Clear
10:53 PM 82.0 °F 84.9 °F 68.0 °F 62% 29.88 in 10.0 mi South 3.5 mph - N/A   Clear
11:53 PM 78.1 °F - 70.0 °F 76% 29.89 in 10.0 mi South 3.5 mph - N/A   Clear